#Datum;Uhrzeit;WR;Pac;DaySum;Status;WR;Pac;DaySum;Status;Pdc1;Udc;Temp;WR;Pac;DaySum;Status;Pdc1;Udc;Temp;WR;Pac;DaySum;Status;Pdc1;Udc;Temp;WR;Pac;DaySum;Status;Pdc1;Pdc2;Udc1;Udc2;Temp;WR;Pac;DaySum;Status;Pdc1;Pdc2;Udc1;Udc2;Temp;WR;Pac;DaySum;Status;Pdc1;Udc;Temp;WR;Pac;DaySum;Status;Pdc1;Udc;Temp;WR;Pac;DaySum;Status;Pdc1;Udc;Temp
19.12.19;23:55:00;1;1870;14901;0;2;0;3850;0;0;0;0;3;0;2389;0;0;0;0;4;0;3343;0;0;0;0;5;0;8262;0;0;0;0;0;0;6;0;5959;0;0;0;0;0;0;7;0;4504;0;0;0;0;8;0;4490;0;0;0;0;9;0;2386;0;0;0;0
19.12.19;23:50:00;1;557;14750;0;2;0;3850;0;0;0;0;3;0;2389;0;0;0;0;4;0;3343;0;0;0;0;5;0;8262;0;0;0;0;0;0;6;0;5959;0;0;0;0;0;0;7;0;4504;0;0;0;0;8;0;4490;0;0;0;0;9;0;2386;0;0;0;0
19.12.19;23:45:00;1;546;14704;0;2;0;3850;0;0;0;0;3;0;2389;0;0;0;0;4;0;3343;0;0;0;0;5;0;8262;0;0;0;0;0;0;6;0;5959;0;0;0;0;0;0;7;0;4504;0;0;0;0;8;0;4490;0;0;0;0;9;0;2386;0;0;0;0
19.12.19;23:40:00;1;576;14658;0;2;0;3850;0;0;0;0;3;0;2389;0;0;0;0;4;0;3343;0;0;0;0;5;0;8262;0;0;0;0;0;0;6;0;5959;0;0;0;0;0;0;7;0;4504;0;0;0;0;8;0;4490;0;0;0;0;9;0;2386;0;0;0;0
19.12.19;23:35:00;1;573;14610;0;2;0;3850;0;0;0;0;3;0;2389;0;0;0;0;4;0;3343;0;0;0;0;5;0;8262;0;0;0;0;0;0;6;0;5959;0;0;0;0;0;0;7;0;4504;0;0;0;0;8;0;4490;0;0;0;0;9;0;2386;0;0;0;0
19.12.19;23:30:00;1;586;14562;0;2;0;3850;0;0;0;0;3;0;2389;0;0;0;0;4;0;3343;0;0;0;0;5;0;8262;0;0;0;0;0;0;6;0;5959;0;0;0;0;0;0;7;0;4504;0;0;0;0;8;0;4490;0;0;0;0;9;0;2386;0;0;0;0
19.12.19;23:25:00;1;610;14513;0;2;0;3850;0;0;0;0;3;0;2389;0;0;0;0;4;0;3343;0;0;0;0;5;0;8262;0;0;0;0;0;0;6;0;5959;0;0;0;0;0;0;7;0;4504;0;0;0;0;8;0;4490;0;0;0;0;9;0;2386;0;0;0;0
19.12.19;23:20:00;1;594;14466;0;2;0;3850;0;0;0;0;3;0;2389;0;0;0;0;4;0;3343;0;0;0;0;5;0;8262;0;0;0;0;0;0;6;0;5959;0;0;0;0;0;0;7;0;4504;0;0;0;0;8;0;4490;0;0;0;0;9;0;2386;0;0;0;0
19.12.19;23:15:00;1;592;14416;0;2;0;3850;0;0;0;0;3;0;2389;0;0;0;0;4;0;3343;0;0;0;0;5;0;8262;0;0;0;0;0;0;6;0;5959;0;0;0;0;0;0;7;0;4504;0;0;0;0;8;0;4490;0;0;0;0;9;0;2386;0;0;0;0
19.12.19;23:10:00;1;597;14367;0;2;0;3850;0;0;0;0;3;0;2389;0;0;0;0;4;0;3343;0;0;0;0;5;0;8262;0;0;0;0;0;0;6;0;5959;0;0;0;0;0;0;7;0;4504;0;0;0;0;8;0;4490;0;0;0;0;9;0;2386;0;0;0;0
19.12.19;23:05:00;1;592;14317;0;2;0;3850;0;0;0;0;3;0;2389;0;0;0;0;4;0;3343;0;0;0;0;5;0;8262;0;0;0;0;0;0;6;0;5959;0;0;0;0;0;0;7;0;4504;0;0;0;0;8;0;4490;0;0;0;0;9;0;2386;0;0;0;0
19.12.19;23:00:00;1;602;14267;0;2;0;3850;0;0;0;0;3;0;2389;0;0;0;0;4;0;3343;0;0;0;0;5;0;8262;0;0;0;0;0;0;6;0;5959;0;0;0;0;0;0;7;0;4504;0;0;0;0;8;0;4490;0;0;0;0;9;0;2386;0;0;0;0
19.12.19;22:55:00;1;594;14218;0;2;0;3850;0;0;0;0;3;0;2389;0;0;0;0;4;0;3343;0;0;0;0;5;0;8262;2;0;0;0;0;0;6;0;5959;2;0;0;0;0;0;7;0;4504;0;0;0;0;8;0;4490;0;0;0;0;9;0;2386;0;0;0;0
19.12.19;22:50:00;1;628;14168;0;2;0;3850;0;0;0;0;3;0;2389;0;0;0;0;4;0;3343;0;0;0;0;5;0;8262;2;0;0;0;0;0;6;0;5959;2;0;0;0;0;0;7;0;4504;0;0;0;0;8;0;4490;0;0;0;0;9;0;2386;0;0;0;0
19.12.19;22:45:00;1;646;14115;0;2;0;3850;0;0;0;0;3;0;2389;0;0;0;0;4;0;3343;0;0;0;0;5;0;8262;2;0;0;0;0;0;6;0;5959;2;0;0;0;0;0;7;0;4504;0;0;0;0;8;0;4490;0;0;0;0;9;0;2386;0;0;0;0
19.12.19;22:40:00;1;558;14062;0;2;0;3850;0;0;0;0;3;0;2389;0;0;0;0;4;0;3343;0;0;0;0;5;0;8262;2;0;0;0;0;0;6;0;5959;2;0;0;0;0;0;7;0;4504;0;0;0;0;8;0;4490;0;0;0;0;9;0;2386;0;0;0;0
19.12.19;22:35:00;1;595;14015;0;2;0;3850;0;0;0;0;3;0;2389;0;0;0;0;4;0;3343;0;0;0;0;5;0;8262;2;0;0;0;0;0;6;0;5959;2;0;0;0;0;0;7;0;4504;0;0;0;0;8;0;4490;0;0;0;0;9;0;2386;0;0;0;0
19.12.19;22:30:00;1;1658;13963;0;2;0;3850;0;0;0;0;3;0;2389;0;0;0;0;4;0;3343;0;0;0;0;5;0;8262;2;0;0;0;0;0;6;0;5959;2;0;0;0;0;0;7;0;4504;0;0;0;0;8;0;4490;0;0;0;0;9;0;2386;0;0;0;0
19.12.19;22:25:00;1;852;13832;0;2;0;3850;0;0;0;0;3;0;2389;0;0;0;0;4;0;3343;0;0;0;0;5;0;8262;2;0;0;0;0;0;6;0;5959;2;0;0;0;0;0;7;0;4504;0;0;0;0;8;0;4490;0;0;0;0;9;0;2386;0;0;0;0
19.12.19;22:20:00;1;1478;13760;0;2;0;3850;0;0;0;0;3;0;2389;0;0;0;0;4;0;3343;0;0;0;0;5;0;8262;2;0;0;0;0;0;6;0;5959;2;0;0;0;0;0;7;0;4504;0;0;0;0;8;0;4490;0;0;0;0;9;0;2386;0;0;0;0
19.12.19;22:15:00;1;2905;13604;0;2;0;3850;0;0;0;0;3;0;2389;0;0;0;0;4;0;3343;0;0;0;0;5;0;8262;2;0;0;0;0;0;6;0;5959;2;0;0;0;0;0;7;0;4504;0;0;0;0;8;0;4490;0;0;0;0;9;0;2386;0;0;0;0
19.12.19;22:10:00;1;1194;13362;0;2;0;3850;0;0;0;0;3;0;2389;0;0;0;0;4;0;3343;0;0;0;0;5;0;8262;2;0;0;0;0;0;6;0;5959;2;0;0;0;0;0;7;0;4504;0;0;0;0;8;0;4490;0;0;0;0;9;0;2386;0;0;0;0
19.12.19;22:05:00;1;976;13265;0;2;0;3850;0;0;0;0;3;0;2389;0;0;0;0;4;0;3343;0;0;0;0;5;0;8262;2;0;0;0;0;0;6;0;5959;2;0;0;0;0;0;7;0;4504;0;0;0;0;8;0;4490;0;0;0;0;9;0;2386;0;0;0;0
19.12.19;22:00:00;1;984;13185;0;2;0;3850;0;0;0;0;3;0;2389;0;0;0;0;4;0;3343;0;0;0;0;5;0;8262;2;0;0;0;0;0;6;0;5959;2;0;0;0;0;0;7;0;4504;0;0;0;0;8;0;4490;0;0;0;0;9;0;2386;0;0;0;0
19.12.19;21:55:00;1;1858;13103;0;2;0;3850;0;0;0;0;3;0;2389;0;0;0;0;4;0;3343;0;0;0;0;5;0;8262;2;0;0;0;0;0;6;0;5959;2;0;0;0;0;0;7;0;4504;0;0;0;0;8;0;4490;0;0;0;0;9;0;2386;0;0;0;0
19.12.19;21:50:00;1;2985;12927;0;2;0;3850;0;0;0;0;3;0;2389;0;0;0;0;4;0;3343;0;0;0;0;5;0;8262;2;0;0;0;0;0;6;0;5959;2;0;0;0;0;0;7;0;4504;0;0;0;0;8;0;4490;0;0;0;0;9;0;2386;0;0;0;0
19.12.19;21:45:00;1;2965;12679;0;2;0;3850;0;0;0;0;3;0;2389;0;0;0;0;4;0;3343;0;0;0;0;5;0;8262;2;0;0;0;0;0;6;0;5959;2;0;0;0;0;0;7;0;4504;0;0;0;0;8;0;4490;0;0;0;0;9;0;2386;0;0;0;0
19.12.19;21:40:00;1;2955;12432;0;2;0;3850;0;0;0;0;3;0;2389;0;0;0;0;4;0;3343;0;0;0;0;5;0;8262;2;0;0;0;0;0;6;0;5959;2;0;0;0;0;0;7;0;4504;0;0;0;0;8;0;4490;0;0;0;0;9;0;2386;0;0;0;0
19.12.19;21:35:00;1;3133;12181;0;2;0;3850;0;0;0;0;3;0;2389;0;0;0;0;4;0;3343;0;0;0;0;5;0;8262;2;0;0;0;0;0;6;0;5959;2;0;0;0;0;0;7;0;4504;0;0;0;0;8;0;4490;0;0;0;0;9;0;2386;0;0;0;0
19.12.19;21:30:00;1;3051;11916;0;2;0;3850;0;0;0;0;3;0;2389;0;0;0;0;4;0;3343;0;0;0;0;5;0;8262;2;0;0;0;0;0;6;0;5959;2;0;0;0;0;0;7;0;4504;0;0;0;0;8;0;4490;0;0;0;0;9;0;2386;0;0;0;0
19.12.19;21:25:00;1;3539;11662;0;2;0;3850;0;0;0;0;3;0;2389;0;0;0;0;4;0;3343;0;0;0;0;5;0;8262;2;0;0;0;0;0;6;0;5959;2;0;0;0;0;0;7;0;4504;0;0;0;0;8;0;4490;0;0;0;0;9;0;2386;0;0;0;0
19.12.19;21:20:00;1;3045;11388;0;2;0;3850;0;0;0;0;3;0;2389;0;0;0;0;4;0;3343;0;0;0;0;5;0;8262;2;0;0;0;0;0;6;0;5959;2;0;0;0;0;0;7;0;4504;0;0;0;0;8;0;4490;0;0;0;0;9;0;2386;0;0;0;0
19.12.19;21:15:00;1;3114;11133;0;2;0;3850;0;0;0;0;3;0;2389;0;0;0;0;4;0;3343;0;0;0;0;5;0;8262;2;0;0;0;0;0;6;0;5959;2;0;0;0;0;0;7;0;4504;0;0;0;0;8;0;4490;0;0;0;0;9;0;2386;0;0;0;0
19.12.19;21:10:00;1;3005;10872;0;2;0;3850;0;0;0;0;3;0;2389;0;0;0;0;4;0;3343;0;0;0;0;5;0;8262;2;0;0;0;0;0;6;0;5959;2;0;0;0;0;0;7;0;4504;0;0;0;0;8;0;4490;0;0;0;0;9;0;2386;0;0;0;0
19.12.19;21:05:00;1;954;10652;0;2;0;3850;0;0;0;0;3;0;2389;0;0;0;0;4;0;3343;0;0;0;0;5;0;8262;2;0;0;0;0;0;6;0;5959;2;0;0;0;0;0;7;0;4504;0;0;0;0;8;0;4490;0;0;0;0;9;0;2386;0;0;0;0
19.12.19;21:00:00;1;917;10571;0;2;0;3850;0;0;0;0;3;0;2389;0;0;0;0;4;0;3343;0;0;0;0;5;0;8262;2;0;0;0;0;0;6;0;5959;2;0;0;0;0;0;7;0;4504;0;0;0;0;8;0;4490;0;0;0;0;9;0;2386;0;0;0;0
19.12.19;20:55:00;1;906;10495;0;2;0;3850;0;0;0;0;3;0;2389;0;0;0;0;4;0;3343;0;0;0;0;5;0;8262;2;0;0;0;0;0;6;0;5959;2;0;0;0;0;0;7;0;4504;0;0;0;0;8;0;4490;0;0;0;0;9;0;2386;0;0;0;0
19.12.19;20:50:00;1;901;10420;0;2;0;3850;0;0;0;0;3;0;2389;0;0;0;0;4;0;3343;0;0;0;0;5;0;8262;2;0;0;0;0;0;6;0;5959;2;0;0;0;0;0;7;0;4504;0;0;0;0;8;0;4490;0;0;0;0;9;0;2386;0;0;0;0
19.12.19;20:45:00;1;928;10324;0;2;0;3850;0;0;0;0;3;0;2389;0;0;0;0;4;0;3343;0;0;0;0;5;0;8262;2;0;0;0;0;0;6;0;5959;2;0;0;0;0;0;7;0;4504;0;0;0;0;8;0;4490;0;0;0;0;9;0;2386;0;0;0;0
19.12.19;20:40:00;1;851;10249;0;2;0;3850;0;0;0;0;3;0;2389;0;0;0;0;4;0;3343;0;0;0;0;5;0;8262;2;0;0;0;0;0;6;0;5959;2;0;0;0;0;0;7;0;4504;0;0;0;0;8;0;4490;0;0;0;0;9;0;2386;0;0;0;0
19.12.19;20:35:00;1;854;10178;0;2;0;3850;0;0;0;0;3;0;2389;0;0;0;0;4;0;3343;0;0;0;0;5;0;8262;2;0;0;0;0;0;6;0;5959;2;0;0;0;0;0;7;0;4504;0;0;0;0;8;0;4490;0;0;0;0;9;0;2386;0;0;0;0
19.12.19;20:30:00;1;927;10101;0;2;0;3850;0;0;0;0;3;0;2389;0;0;0;0;4;0;3343;0;0;0;0;5;0;8262;2;0;0;0;0;0;6;0;5959;2;0;0;0;0;0;7;0;4504;0;0;0;0;8;0;4490;0;0;0;0;9;0;2386;0;0;0;0
19.12.19;20:25:00;1;925;10022;0;2;0;3850;0;0;0;0;3;0;2389;0;0;0;0;4;0;3343;0;0;0;0;5;0;8262;2;0;0;0;0;0;6;0;5959;2;0;0;0;0;0;7;0;4504;0;0;0;0;8;0;4490;0;0;0;0;9;0;2386;0;0;0;0
19.12.19;20:20:00;1;944;9947;0;2;0;3850;0;0;0;0;3;0;2389;0;0;0;0;4;0;3343;0;0;0;0;5;0;8262;2;0;0;0;0;0;6;0;5959;2;0;0;0;0;0;7;0;4504;0;0;0;0;8;0;4490;0;0;0;0;9;0;2386;0;0;0;0
19.12.19;20:15:00;1;863;9870;0;2;0;3850;0;0;0;0;3;0;2389;0;0;0;0;4;0;3343;0;0;0;0;5;0;8262;2;0;0;0;0;0;6;0;5959;2;0;0;0;0;0;7;0;4504;0;0;0;0;8;0;4490;0;0;0;0;9;0;2386;0;0;0;0
19.12.19;20:10:00;1;846;9798;0;2;0;3850;0;0;0;0;3;0;2389;0;0;0;0;4;0;3343;0;0;0;0;5;0;8262;2;0;0;0;0;0;6;0;5959;2;0;0;0;0;0;7;0;4504;0;0;0;0;8;0;4490;0;0;0;0;9;0;2386;0;0;0;0
19.12.19;20:05:00;1;855;9706;0;2;0;3850;0;0;0;0;3;0;2389;0;0;0;0;4;0;3343;0;0;0;0;5;0;8262;2;0;0;0;0;0;6;0;5959;2;0;0;0;0;0;7;0;4504;0;0;0;0;8;0;4490;0;0;0;0;9;0;2386;0;0;0;0
19.12.19;20:00:00;1;1618;9634;0;2;0;3850;0;0;0;0;3;0;2389;0;0;0;0;4;0;3343;0;0;0;0;5;0;8262;2;0;0;0;0;0;6;0;5959;2;0;0;0;0;0;7;0;4504;0;0;0;0;8;0;4490;0;0;0;0;9;0;2386;0;0;0;0
19.12.19;19:55:00;1;3038;9480;0;2;0;3850;0;0;0;0;3;0;2389;0;0;0;0;4;0;3343;0;0;0;0;5;0;8262;2;0;0;0;0;0;6;0;5959;2;0;0;0;0;0;7;0;4504;0;0;0;0;8;0;4490;0;0;0;0;9;0;2386;0;0;0;0
19.12.19;19:50:00;1;1170;9227;0;2;0;3850;0;0;0;0;3;0;2389;0;0;0;0;4;0;3343;0;0;0;0;5;0;8262;2;0;0;0;0;0;6;0;5959;2;0;0;0;0;0;7;0;4504;0;0;0;0;8;0;4490;0;0;0;0;9;0;2386;0;0;0;0
19.12.19;19:45:00;1;845;9143;0;2;0;3850;0;0;0;0;3;0;2389;0;0;0;0;4;0;3343;0;0;0;0;5;0;8262;2;0;0;0;0;0;6;0;5959;2;0;0;0;0;0;7;0;4504;0;0;0;0;8;0;4490;0;0;0;0;9;0;2386;0;0;0;0
19.12.19;19:40:00;1;1291;9071;0;2;0;3850;0;0;0;0;3;0;2389;0;0;0;0;4;0;3343;0;0;0;0;5;0;8262;2;0;0;0;0;0;6;0;5959;2;0;0;0;0;0;7;0;4504;0;0;0;0;8;0;4490;0;0;0;0;9;0;2386;0;0;0;0
19.12.19;19:35:00;1;1344;8971;0;2;0;3850;0;0;0;0;3;0;2389;0;0;0;0;4;0;3343;0;0;0;0;5;0;8262;2;0;0;0;0;0;6;0;5959;2;0;0;0;0;0;7;0;4504;0;0;0;0;8;0;4490;0;0;0;0;9;0;2386;0;0;0;0
19.12.19;19:30:00;1;1051;8862;0;2;0;3850;0;0;0;0;3;0;2389;0;0;0;0;4;0;3343;0;0;0;0;5;0;8262;2;0;0;0;0;0;6;0;5959;2;0;0;0;0;0;7;0;4504;0;0;0;0;8;0;4490;0;0;0;0;9;0;2386;0;0;0;0
19.12.19;19:25:00;1;1012;8774;0;2;0;3850;0;0;0;0;3;0;2389;0;0;0;0;4;0;3343;0;0;0;0;5;0;8262;2;0;0;0;0;0;6;0;5959;2;0;0;0;0;0;7;0;4504;0;0;0;0;8;0;4490;0;0;0;0;9;0;2386;0;0;0;0
19.12.19;19:20:00;1;1001;8689;0;2;0;3850;0;0;0;0;3;0;2389;0;0;0;0;4;0;3343;0;0;0;0;5;0;8262;2;0;0;0;0;0;6;0;5959;2;0;0;0;0;0;7;0;4504;0;0;0;0;8;0;4490;0;0;0;0;9;0;2386;0;0;0;0
19.12.19;19:15:00;1;1788;8577;0;2;0;3850;0;0;0;0;3;0;2389;0;0;0;0;4;0;3343;0;0;0;0;5;0;8262;2;0;0;0;0;0;6;0;5959;2;0;0;0;0;0;7;0;4504;0;0;0;0;8;0;4490;0;0;0;0;9;0;2386;0;0;0;0
19.12.19;19:10:00;1;1880;8428;0;2;0;3850;0;0;0;0;3;0;2389;0;0;0;0;4;0;3343;0;0;0;0;5;0;8262;2;0;0;0;0;0;6;0;5959;2;0;0;0;0;0;7;0;4504;0;0;0;0;8;0;4490;0;0;0;0;9;0;2386;0;0;0;0
19.12.19;19:05:00;1;2113;8246;0;2;0;3850;0;0;0;0;3;0;2389;0;0;0;0;4;0;3343;0;0;0;0;5;0;8262;2;0;0;0;0;0;6;0;5959;2;0;0;0;0;0;7;0;4504;0;0;0;0;8;0;4490;0;0;0;0;9;0;2386;0;0;0;0
19.12.19;19:00:00;1;2359;8103;0;2;0;3850;0;0;0;0;3;0;2389;0;0;0;0;4;0;3343;0;0;0;0;5;0;8262;2;0;0;0;0;0;6;0;5959;2;0;0;0;0;0;7;0;4504;0;0;0;0;8;0;4490;0;0;0;0;9;0;2386;0;0;0;0
19.12.19;18:55:00;1;2131;7935;0;2;0;3850;0;0;0;0;3;0;2389;0;0;0;0;4;0;3343;0;0;0;0;5;0;8262;2;0;0;0;0;0;6;0;5959;2;0;0;0;0;0;7;0;4504;0;0;0;0;8;0;4490;0;0;0;0;9;0;2386;0;0;0;0
19.12.19;18:50:00;1;1767;7769;0;2;0;3850;0;0;0;0;3;0;2389;0;0;0;0;4;0;3343;0;0;0;0;5;0;8262;2;0;0;0;0;0;6;0;5959;2;0;0;0;0;0;7;0;4504;0;0;0;0;8;0;4490;0;0;0;0;9;0;2386;0;0;0;0
19.12.19;18:45:00;1;2690;7591;0;2;0;3850;0;0;0;0;3;0;2389;0;0;0;0;4;0;3343;0;0;0;0;5;0;8262;2;0;0;0;0;0;6;0;5959;2;0;0;0;0;0;7;0;4504;0;0;0;0;8;0;4490;0;0;0;0;9;0;2386;0;0;0;0
19.12.19;18:40:00;1;3570;7336;0;2;0;3850;0;0;0;0;3;0;2389;0;0;0;0;4;0;3343;0;0;0;0;5;0;8262;2;0;0;0;0;0;6;0;5959;2;0;0;0;0;0;7;0;4504;0;0;0;0;8;0;4490;0;0;0;0;9;0;2386;0;0;0;0
19.12.19;18:35:00;1;4421;7091;0;2;0;3850;0;0;0;0;3;0;2389;0;0;0;0;4;0;3343;0;0;0;0;5;0;8262;2;0;0;0;0;0;6;0;5959;2;0;0;0;0;0;7;0;4504;0;0;0;0;8;0;4490;0;0;0;0;9;0;2386;0;0;0;0
19.12.19;18:30:00;1;3775;6747;0;2;0;3850;0;0;0;0;3;0;2389;0;0;0;0;4;0;3343;0;0;0;0;5;0;8262;2;0;0;0;0;0;6;0;5959;2;0;0;0;0;0;7;0;4504;0;0;0;0;8;0;4490;0;0;0;0;9;0;2386;0;0;0;0
19.12.19;18:25:00;1;1921;6397;0;2;0;3850;0;0;0;0;3;0;2389;0;0;0;0;4;0;3343;0;0;0;0;5;0;8262;2;0;0;0;0;0;6;0;5959;2;0;0;0;0;0;7;0;4504;0;0;0;0;8;0;4490;0;0;0;0;9;0;2386;0;0;0;0
19.12.19;18:20:00;1;894;6296;0;2;0;3850;0;0;0;0;3;0;2389;0;0;0;0;4;0;3343;0;0;0;0;5;0;8262;2;0;0;0;0;0;6;0;5959;2;0;0;0;0;0;7;0;4504;0;0;0;0;8;0;4490;0;0;0;0;9;0;2386;0;0;0;0
19.12.19;18:15:00;1;877;6222;0;2;0;3850;0;0;0;0;3;0;2389;0;0;0;0;4;0;3343;0;0;0;0;5;0;8262;2;0;0;0;0;0;6;0;5959;2;0;0;0;0;0;7;0;4504;0;0;0;0;8;0;4490;0;0;0;0;9;0;2386;0;0;0;0
19.12.19;18:10:00;1;903;6148;0;2;0;3850;0;0;0;0;3;0;2389;0;0;0;0;4;0;3343;0;0;0;0;5;0;8262;2;0;0;0;0;0;6;0;5959;2;0;0;0;0;0;7;0;4504;0;0;0;0;8;0;4490;0;0;0;0;9;0;2386;0;0;0;0
19.12.19;18:05:00;1;931;6072;0;2;0;3850;0;0;0;0;3;0;2389;0;0;0;0;4;0;3343;0;0;0;0;5;0;8262;2;0;0;0;0;0;6;0;5959;2;0;0;0;0;0;7;0;4504;0;0;0;0;8;0;4490;0;0;0;0;9;0;2386;0;0;0;0
19.12.19;18:00:00;1;959;5992;0;2;0;3850;0;0;0;0;3;0;2389;0;0;0;0;4;0;3343;0;0;0;0;5;0;8262;2;0;0;0;0;0;6;0;5959;2;0;0;0;0;0;7;0;4504;0;0;0;0;8;0;4490;0;0;0;0;9;0;2386;0;0;0;0
19.12.19;17:55:00;1;943;5912;0;2;0;3850;0;0;0;0;3;0;2389;0;0;0;0;4;0;3343;0;0;0;0;5;0;8262;2;0;0;0;0;0;6;0;5959;2;0;0;0;0;0;7;0;4504;0;0;0;0;8;0;4490;0;0;0;0;9;0;2386;0;0;0;0
19.12.19;17:50:00;1;981;5834;0;2;0;3850;0;0;0;0;3;0;2389;0;0;0;0;4;0;3343;0;0;0;0;5;0;8262;2;0;0;0;0;0;6;0;5959;2;0;0;0;0;0;7;0;4504;0;0;0;0;8;0;4490;0;0;0;0;9;0;2386;0;0;0;0
19.12.19;17:45:00;1;954;5752;0;2;0;3850;0;0;0;0;3;0;2389;0;0;0;0;4;0;3343;0;0;0;0;5;0;8262;2;0;0;0;0;0;6;0;5959;2;0;0;0;0;0;7;0;4504;0;0;0;0;8;0;4490;0;0;0;0;9;0;2386;0;0;0;0
19.12.19;17:40:00;1;935;5672;0;2;0;3850;0;0;0;0;3;0;2389;0;0;0;0;4;0;3343;0;0;0;0;5;0;8262;2;0;0;0;0;0;6;0;5959;2;0;0;0;0;0;7;0;4504;0;0;0;0;8;0;4490;0;0;0;0;9;0;2386;0;0;0;0
19.12.19;17:35:00;1;1103;5594;0;2;0;3850;0;0;0;0;3;0;2389;0;0;0;0;4;0;3343;0;0;0;0;5;0;8262;2;0;0;0;0;0;6;0;5959;2;0;0;0;0;0;7;0;4504;0;0;0;0;8;0;4490;0;0;0;0;9;0;2386;0;0;0;0
19.12.19;17:30:00;1;1154;5502;0;2;0;3850;0;0;0;0;3;0;2389;0;0;0;0;4;0;3343;0;0;0;0;5;0;8262;2;0;0;0;0;0;6;0;5959;2;0;0;0;0;0;7;0;4504;0;0;0;0;8;0;4490;0;0;0;0;9;0;2386;0;0;0;0
19.12.19;17:25:00;1;1363;5404;0;2;0;3850;0;0;0;0;3;0;2389;0;0;0;0;4;0;3343;0;0;0;0;5;0;8262;2;0;0;0;0;0;6;0;5959;2;0;0;0;0;0;7;0;4504;0;0;0;0;8;0;4490;0;0;0;0;9;0;2386;0;0;0;0
19.12.19;17:20:00;1;1245;5292;0;2;0;3850;0;0;0;0;3;0;2389;0;0;0;0;4;0;3343;0;0;0;0;5;0;8262;2;0;0;0;0;0;6;0;5959;2;0;0;0;0;0;7;0;4504;0;0;0;0;8;0;4490;0;0;0;0;9;0;2386;0;0;0;0
19.12.19;17:15:00;1;1023;5188;0;2;0;3850;0;0;0;0;3;0;2389;0;0;0;0;4;0;3343;0;0;0;0;5;0;8262;2;0;0;0;0;0;6;0;5959;2;0;0;0;0;0;7;0;4504;0;0;0;0;8;0;4490;0;0;0;0;9;0;2386;0;0;0;0
19.12.19;17:10:00;1;990;5102;0;2;0;3850;0;0;0;0;3;0;2389;0;0;0;0;4;0;3343;0;0;0;0;5;0;8262;2;0;0;0;0;0;6;0;5959;2;0;0;0;0;0;7;0;4504;0;0;0;0;8;0;4490;0;0;0;0;9;0;2386;0;0;0;0
19.12.19;17:05:00;1;879;5019;0;2;0;3850;0;0;0;0;3;0;2389;0;0;0;0;4;0;3343;0;0;0;0;5;0;8262;2;0;0;0;0;0;6;0;5959;2;0;0;0;0;0;7;0;4504;0;0;0;0;8;0;4490;0;0;0;0;9;0;2386;0;0;0;0
19.12.19;17:00:00;1;858;4945;0;2;0;3850;0;0;0;0;3;0;2389;0;0;0;0;4;0;3343;0;0;0;0;5;0;8262;2;0;0;0;0;0;6;0;5959;2;0;0;0;0;0;7;0;4504;0;0;0;0;8;0;4490;0;0;0;0;9;0;2386;0;0;0;0
19.12.19;16:55:00;1;710;4865;0;2;0;3850;0;0;0;0;3;0;2389;0;0;0;0;4;0;3343;0;0;0;0;5;0;8262;2;0;0;0;0;0;6;0;5959;2;0;0;0;0;0;7;0;4504;0;0;0;0;8;0;4490;0;0;0;0;9;0;2386;0;0;0;0
19.12.19;16:50:00;1;740;4805;0;2;0;3850;0;0;0;0;3;0;2389;0;0;0;0;4;0;3343;0;0;0;0;5;0;8262;2;0;0;0;0;0;6;0;5959;2;0;0;0;0;0;7;0;4504;0;0;0;0;8;0;4490;0;0;0;0;9;0;2386;0;0;0;0
19.12.19;16:45:00;1;768;4745;0;2;0;3850;0;0;0;0;3;0;2389;0;0;0;0;4;0;3343;0;0;0;0;5;0;8262;2;0;0;0;0;0;6;0;5959;2;0;0;0;0;0;7;0;4504;0;0;0;0;8;0;4490;0;0;0;0;9;0;2386;0;0;0;0
19.12.19;16:40:00;1;595;4678;0;2;0;3850;0;0;0;0;3;0;2389;0;0;0;0;4;0;3343;0;0;0;0;5;0;8262;2;0;0;0;0;0;6;0;5959;2;0;0;0;0;0;7;0;4504;0;0;0;0;8;0;4490;0;0;0;0;9;0;2386;0;0;0;0
19.12.19;16:35:00;1;508;4631;0;2;0;3850;0;0;73;3;3;0;2389;0;0;234;12;4;0;3343;0;0;0;0;5;0;8262;2;0;0;0;0;0;6;0;5959;2;0;0;0;0;0;7;0;4504;0;0;0;0;8;0;4490;0;0;0;0;9;0;2386;0;0;0;0
19.12.19;16:30:00;1;471;4584;0;2;0;3850;6;0;289;12;3;0;2389;6;0;324;15;4;0;3343;0;0;58;10;5;0;8262;2;0;0;0;0;0;6;0;5959;2;0;0;0;0;0;7;0;4504;0;0;0;0;8;0;4490;0;0;0;0;9;0;2386;0;0;0;0
19.12.19;16:25:00;1;266;4547;0;2;0;3850;6;0;340;12;3;0;2389;6;1;398;15;4;0;3343;1;0;117;12;5;0;8262;2;0;0;198;223;15;6;0;5959;0;3;2;119;270;14;7;0;4504;0;0;171;10;8;0;4490;0;0;135;8;9;0;2386;0;0;185;8
19.12.19;16:20:00;1;268;4525;0;2;0;3850;6;0;371;12;3;0;2389;6;4;421;15;4;0;3343;1;0;161;13;5;0;8262;23;0;0;391;407;23;6;0;5959;23;4;6;470;241;22;7;0;4504;6;0;327;16;8;0;4490;6;0;325;16;9;0;2386;6;0;334;12
19.12.19;16:15:00;1;270;4502;0;2;0;3850;6;0;390;12;3;1;2389;6;3;474;15;4;0;3343;1;0;195;13;5;0;8262;26;0;0;413;595;23;6;0;5959;23;4;4;245;491;22;7;0;4504;6;0;388;16;8;0;4490;6;0;385;16;9;0;2386;6;0;393;12
19.12.19;16:10:00;1;226;4479;0;2;0;3850;6;0;404;13;3;0;2389;6;0;500;15;4;0;3343;1;0;204;14;5;8;8261;4;0;2;412;651;24;6;0;5959;23;4;5;427;572;23;7;0;4504;6;1;409;17;8;0;4490;6;0;419;16;9;0;2386;6;0;437;12
19.12.19;16:05:00;1;227;4460;0;2;2;3850;6;5;407;13;3;3;2389;3;9;487;16;4;0;3343;3;0;211;14;5;75;8261;4;11;15;370;586;25;6;0;5959;8;2;0;359;586;23;7;1;4504;6;1;451;17;8;0;4490;6;1;452;16;9;1;2386;6;1;492;13
19.12.19;16:00:00;1;227;4441;0;2;3;3850;6;10;412;13;3;2;2389;6;8;516;16;4;1;3343;3;1;200;14;5;96;8254;4;25;30;370;586;25;6;20;5959;1;14;14;547;445;24;7;0;4504;6;0;468;17;8;0;4490;6;0;489;17;9;0;2386;6;0;524;13
19.12.19;15:55:00;1;226;4422;0;2;43;3850;6;66;375;14;3;3;2389;6;9;533;16;4;12;3343;3;13;199;14;5;133;8246;4;48;46;370;586;25;6;62;5957;4;40;23;446;220;25;7;10;4504;3;18;460;17;8;7;4490;4;17;460;17;9;2;2386;3;9;511;13
19.12.19;15:50:00;1;225;4403;0;2;75;3847;4;103;368;14;3;8;2388;6;14;538;16;4;31;3342;3;32;198;15;5;171;8235;4;68;67;370;586;25;6;85;5952;4;46;27;446;220;25;7;54;4503;4;84;407;18;8;55;4490;4;81;369;17;9;6;2386;6;10;540;13
19.12.19;15:45:00;1;226;4384;0;2;105;3840;4;135;361;14;3;48;2388;6;75;462;17;4;57;3340;3;60;198;15;5;220;8220;4;102;89;370;586;25;6;107;5944;4;65;36;445;219;25;7;86;4498;4;119;420;18;8;84;4485;4;121;418;17;9;7;2385;6;11;558;13
19.12.19;15:40:00;1;258;4366;0;2;133;3832;4;165;382;14;3;75;2384;4;112;470;17;4;78;3335;3;81;198;15;5;268;8201;4;122;111;370;586;25;6;127;5935;4;72;38;446;219;25;7;125;4491;4;151;415;18;8;123;4478;4;154;411;17;9;39;2385;6;52;504;14
19.12.19;15:35:00;1;267;4344;0;2;171;3821;4;202;376;14;3;99;2378;4;135;486;17;4;114;3329;5;118;224;15;5;321;8179;4;155;132;370;586;25;6;158;5924;4;121;64;446;220;25;7;168;4481;4;198;433;18;8;161;4468;4;197;419;17;9;85;2382;4;111;475;14
19.12.19;15:30:00;1;269;4322;0;2;203;3806;4;237;390;15;3;121;2369;4;160;502;17;4;143;3319;5;149;226;15;5;384;8152;4;186;161;391;586;25;6;228;5911;4;101;94;446;373;25;7;202;4467;4;242;440;18;8;204;4455;4;240;438;17;9;86;2374;4;134;491;14
19.12.19;15:25:00;1;243;4299;0;2;236;3790;4;272;387;15;3;137;2359;4;177;523;17;4;173;3307;5;181;229;15;5;442;8119;4;213;185;402;603;25;6;316;5891;4;134;165;480;547;25;7;247;4450;4;291;463;18;8;240;4438;4;285;461;18;9;129;2367;4;158;512;14
19.12.19;15:20:00;1;227;4278;0;2;275;3770;4;313;389;15;3;165;2348;4;208;489;17;4;210;3293;5;219;233;15;5;509;8082;4;249;221;403;621;25;6;382;5864;4;188;201;582;560;25;7;303;4429;4;337;465;18;8;293;4418;4;335;454;18;9;155;2356;4;182;523;14
19.12.19;15:15:00;1;286;4259;0;2;312;3747;4;350;392;15;3;188;2334;4;232;497;17;4;242;3275;5;252;232;15;5;573;8039;4;291;248;403;622;25;6;434;5832;4;242;254;577;562;25;7;345;4404;4;384;466;18;8;337;4394;4;382;470;18;9;182;2343;4;209;506;15
19.12.19;15:10:00;1;286;4235;0;2;338;3721;4;379;403;15;3;208;2318;4;249;491;17;4;266;3255;5;277;236;15;5;629;7991;4;310;267;407;640;25;6;472;5796;4;252;264;584;558;25;7;377;4375;4;417;468;18;8;380;4366;4;420;472;18;9;200;2328;4;230;513;15
19.12.19;15:05:00;1;288;4211;0;2;381;3693;4;422;397;15;3;230;2301;4;278;513;17;4;304;3233;5;317;235;15;5;706;7938;4;345;300;410;649;25;6;528;5756;4;275;292;583;566;25;7;422;4344;4;480;475;18;8;428;4334;4;472;458;18;9;224;2312;4;258;520;15
19.12.19;15:00:00;1;287;4187;0;2;420;3661;4;461;402;15;3;258;2282;4;303;517;18;4;339;3208;5;353;238;15;5;779;7879;4;393;332;410;644;25;6;586;5711;4;289;306;587;562;25;7;485;4309;4;525;487;18;8;484;4298;4;522;459;18;9;253;2293;4;290;524;15
19.12.19;14:55:00;1;301;4163;0;2;449;3626;4;494;402;15;3;278;2260;4;322;510;18;4;367;3180;5;383;236;16;5;853;7813;4;418;361;415;659;25;6;639;5662;4;329;345;583;577;25;7;528;4269;4;565;481;18;8;521;4258;4;567;473;18;9;273;2272;4;310;527;15
19.12.19;14:50:00;1;329;4137;0;2;473;3589;4;516;405;16;3;293;2237;4;340;505;18;4;386;3149;5;402;243;16;5;913;7742;4;443;385;419;690;25;6;675;5609;4;302;310;595;567;25;7;568;4225;4;614;473;18;8;558;4215;4;607;473;18;9;292;2249;4;331;539;15
19.12.19;14:45:00;1;349;4110;0;2;469;3550;4;515;405;16;3;293;2213;4;337;510;18;4;390;3117;5;406;240;16;5;915;7666;4;455;390;414;678;25;6;683;5552;4;301;309;584;569;25;7;579;4178;4;628;475;18;8;581;4169;4;629;478;18;9;304;2225;4;342;527;15
19.12.19;14:40:00;1;271;4082;0;2;442;3510;4;486;398;16;3;274;2188;4;323;518;18;4;373;3085;5;388;241;16;5;910;7590;4;451;390;409;662;25;6;687;5494;4;376;390;581;563;25;7;562;4130;4;617;489;18;8;575;4121;4;615;480;18;9;302;2200;4;340;515;15
19.12.19;14:35:00;1;224;4060;0;2;501;3473;4;543;396;16;3;315;2165;4;361;509;18;4;422;3053;5;440;241;16;5;993;7514;4;498;428;417;673;25;6;749;5437;4;379;392;592;567;25;7;571;4082;4;616;484;18;8;569;4072;4;618;474;18;9;306;2174;4;343;526;15
19.12.19;14:30:00;1;225;4041;0;2;626;3432;4;672;406;16;3;380;2139;4;430;491;18;4;498;3018;5;518;246;16;5;1186;7430;4;610;513;432;700;25;6;897;5374;4;442;455;598;573;25;7;646;4035;4;691;456;18;8;651;4024;4;698;486;18;9;351;2148;4;392;535;15
19.12.19;14:25:00;1;225;4022;0;2;676;3380;4;727;411;16;3;424;2107;4;474;510;18;4;546;2977;5;569;246;16;5;1300;7330;4;669;568;425;678;25;6;988;5298;4;503;513;591;574;25;7;806;3981;4;861;435;18;8;821;3970;4;872;494;18;9;423;2119;4;468;534;15
19.12.19;14:20:00;1;224;4003;0;2;518;3323;4;561;402;16;3;321;2072;4;369;521;18;4;442;2931;5;460;242;16;5;1071;7222;4;557;461;418;694;25;6;816;5216;4;406;418;597;579;25;7;633;3914;4;682;473;18;8;645;3901;4;686;477;18;9;344;2084;4;384;528;15
19.12.19;14:15:00;1;224;3985;0;2;550;3279;4;600;406;16;3;341;2045;4;390;511;18;4;469;2894;5;489;240;16;5;1114;7134;4;572;477;422;679;25;6;837;5149;4;424;432;598;574;25;7;623;3861;4;670;483;18;8;610;3847;4;659;477;18;9;320;2055;4;357;529;15
19.12.19;14:10:00;1;224;3966;0;2;690;3234;4;742;411;16;3;430;2017;4;480;508;18;4;582;2855;5;606;244;16;5;1335;7040;4;674;577;424;688;25;6;1005;5079;4;521;522;590;584;25;7;718;3809;4;763;480;18;8;715;3796;4;762;473;18;9;383;2028;4;426;534;15
19.12.19;14:05:00;1;258;3947;0;2;667;3177;4;716;406;16;3;416;1981;4;468;505;18;4;582;2807;5;606;244;16;5;1396;6927;4;725;604;422;691;25;6;1070;4993;4;518;522;601;571;24;7;921;3749;4;979;478;18;8;932;3737;4;985;479;18;9;494;1996;4;541;513;15
19.12.19;14:00:00;1;266;3925;0;2;643;3121;4;692;406;16;3;403;1946;4;455;519;18;4;552;2758;5;575;243;16;5;1324;6812;4;677;562;424;704;25;6;1017;4905;4;519;523;598;571;24;7;791;3673;4;834;483;18;8;779;3660;4;835;472;18;9;424;1955;4;465;527;15
19.12.19;13:55:00;1;267;3903;0;2;569;3067;4;615;402;16;3;355;1913;4;404;511;18;4;486;2712;5;506;241;16;5;1157;6702;4;589;499;414;693;25;6;882;4822;4;452;460;590;569;24;7;718;3606;4;776;479;18;8;725;3594;4;770;476;18;9;384;1920;4;429;532;15
19.12.19;13:50:00;1;258;3881;0;2;495;3020;4;541;405;16;3;313;1883;4;360;505;18;4;431;2671;5;449;234;16;5;1053;6605;4;535;455;411;676;25;6;804;4748;4;431;436;586;570;24;7;641;3547;4;687;464;18;8;651;3534;4;696;473;18;9;349;1888;4;391;534;15
19.12.19;13:45:00;1;225;3860;0;2;380;2978;4;418;394;16;3;230;1856;4;278;504;18;4;320;2635;5;333;236;16;5;812;6519;4;403;349;411;651;25;6;605;4684;4;281;295;570;566;24;7;468;3493;4;514;458;18;8;474;3479;4;516;462;18;9;253;1859;4;288;518;15